Location: Newark
(41.6478°N, 9.0078°E)
Time: 06:40:06
(UTC+00:00)

UWE-3 - Pass Details

Date: 02 February 2020
Orbit: 586 x 682 km, 97.6° (Epoch: 27 February)

Event Time Altitude Azimuth Distance (km) Brightness Sun altitude
Rises 04:45:56 0° 15° (NNE) 2,917 ? -20.7°
Reaches altitude 10° 04:48:07 10° 18° (NNE) 2,021 ? -20.3°
Maximum altitude 04:52:30 65° 100° (E) 710 ? -19.5°
Drops below altitude 10° 04:56:59 10° 183° (S) 2,064 ? -18.7°
Sets 04:59:14 0° 187° (S) 2,985 ? -18.2°
